This demonstration page uses our WeatherBlox Daily Observations layout. Learn more.

Left ArrowRight Arrow

Hourly Observations for July 10, 2018

Temp ( °F °C ) Dew Point ( °F °C ) Humidity (%) Winds ( mph kmh ) Pressure ( in mb ) Visibility ( mi km ) Precip ( " mm )
12:53 am 00:53 Clear 73 22.8 67 19.4 81 81 ESE 3 6 30.08 1019 10 16 0.00 0.00
1:53 am 01:53 Clear 71 21.7 67 19.4 87 87 ENE 3 6 30.07 1018 10 16 0.00 0.00
2:53 am 02:53 Clear 71 21.7 67 19.4 87 87 ENE 3 6 30.06 1018 10 16 0.00 0.00
3:53 am 03:53 Clear 71 21.7 68 20 90 90 E 6 9 30.05 1018 10 16 0.00 0.00
4:53 am 04:53 Clear 71 21.7 67 19.4 87 87 E 7 11 30.06 1018 10 16 0.00 0.00
5:53 am 05:53 Clear 71 21.7 66 18.9 84 84 E 8 13 30.05 1018 10 16 0.00 0.00
6:53 am 06:53 Clear 71 21.7 66 18.9 84 84 E 7 11 30.07 1018 10 16 0.00 0.00
7:53 am 07:53 Sunny 72 22.2 67 19.4 84 84 ESE 9 15 30.08 1019 10 16 0.00 0.00
8:53 am 08:53 Mostly Cloudy 73 22.8 67 19.4 81 81 ESE 7 11 30.10 1019 10 16 0.00 0.00
9:53 am 09:53 Mostly Cloudy 73 22.8 68 20 84 84 ESE 7 11 30.11 1020 10 16 0.00 0.00
10:53 am 10:53 Sunny 75 23.9 68 20 79 79 SE 8 13 30.11 1020 10 16 0.00 0.00
11:53 am 11:53 Mostly Sunny 77 25 68 20 74 74 ESE 8 13 30.10 1019 10 16 0.00 0.00
12:53 pm 12:53 Sunny 80 26.7 66 18.9 62 62 SE 6 9 30.07 1018 10 16 0.00 0.00
1:53 pm 13:53 Mostly Sunny 86 30 66 18.9 51 51 ESE 10 17 30.03 1017 10 16 0.00 0.00
2:53 pm 14:53 Partly Cloudy 85 29.4 65 18.3 51 51 ESE 8 13 30.01 1016 10 16 0.00 0.00
3:53 pm 15:53 Mostly Sunny 88 31.1 63 17.2 43 43 ESE 8 13 29.96 1015 10 16 0.00 0.00
4:53 pm 16:53 Mostly Cloudy 88 31.1 63 17.2 43 43 SSE 12 19 29.95 1014 10 16 0.00 0.00
5:53 pm 17:53 Partly Cloudy with Nearby Thunderstorms 84 28.9 64 17.8 51 51 S 16 26 29.95 1014 10 16 0.00 0.00
6:28 pm 18:28 Mostly Sunny 84 28.9 63 17.2 49 49 S 13 20 29.85 1011 10 16 0.00 0.00
6:53 pm 18:53 Sunny 83 28.3 63 17.2 51 51 S 15 24 29.93 1014 10 16 0.00 0.00
7:53 pm 19:53 Sunny 83 28.3 63 17.2 51 51 S 10 17 29.94 1014 10 16 0.00 0.00
8:53 pm 20:53 Sunny 81 27.2 64 17.8 57 57 S 5 7 29.94 1014 10 16 0.00 0.00
9:53 pm 21:53 Clear 78 25.6 66 18.9 67 67 SSE 3 6 29.96 1015 10 16 0.00 0.00
10:53 pm 22:53 Clear 77 25 66 18.9 69 69 ESE 5 7 29.98 1015 10 16 0.00 0.00
11:53 pm 23:53 Clear 75 23.9 66 18.9 74 74 SE 7 11 29.98 1015 10 16 0.00 0.00

Powered by AerisWeather